Time,TemperatureF,DewpointF,PressureIn,WindDirection,WindDirectionDegrees,WindSpeedMPH,WindSpeedGustMPH,Humidity,HourlyPrecipIn,Conditions,Clouds,dailyrainin,SoftwareType,DateUTC
2013-08-31 00:01:00,69.7,50.3,30.16,NE,51,4.0,6.0,50,0.00,,,0.00,vanprod-2.5-rc3,2013-08-31 06:01:00,
2013-08-31 00:06:00,69.5,50.1,30.16,NE,52,4.0,5.0,50,0.00,,,0.00,vanprod-2.5-rc3,2013-08-31 06:06:00,
2013-08-31 00:11:00,69.3,50.4,30.16,NE,52,7.0,7.0,51,0.00,,,0.00,vanprod-2.5-rc3,2013-08-31 06:11:00,
2013-08-31 00:16:00,69.2,50.3,30.16,NE,45,6.0,9.0,51,0.00,,,0.00,vanprod-2.5-rc3,2013-08-31 06:16:00,
2013-08-31 00:21:00,69.2,50.3,30.16,NE,45,6.0,7.0,51,0.00,,,0.00,vanprod-2.5-rc3,2013-08-31 06:21:00,
2013-08-31 00:26:00,69.3,50.4,30.16,NE,46,6.0,7.0,51,0.00,,,0.00,vanprod-2.5-rc3,2013-08-31 06:26:00,
2013-08-31 00:31:00,69.3,50.4,30.16,NE,49,6.0,9.0,51,0.00,,,0.00,vanprod-2.5-rc3,2013-08-31 06:31:00,
2013-08-31 00:36:00,69.3,50.4,30.16,NE,56,6.0,9.0,51,0.00,,,0.00,vanprod-2.5-rc3,2013-08-31 06:36:00,
2013-08-31 00:41:00,69.1,50.2,30.16,ENE,65,6.0,9.0,51,0.00,,,0.00,vanprod-2.5-rc3,2013-08-31 06:41:00,
2013-08-31 00:46:00,68.9,50.0,30.16,East,79,7.0,9.0,51,0.00,,,0.00,vanprod-2.5-rc3,2013-08-31 06:46:00,
2013-08-31 00:51:00,68.7,49.9,30.16,East,86,4.0,5.0,51,0.00,,,0.00,vanprod-2.5-rc3,2013-08-31 06:51:00,
2013-08-31 00:56:00,68.5,49.7,30.16,East,80,2.0,6.0,51,0.00,,,0.00,vanprod-2.5-rc3,2013-08-31 06:56:00,
2013-08-31 01:01:00,68.4,50.1,30.16,ENE,77,0.0,0.0,52,0.00,,,0.00,vanprod-2.5-rc3,2013-08-31 07:01:00,
2013-08-31 01:06:00,68.1,49.8,30.16,ENE,68,0.0,0.0,52,0.00,,,0.00,vanprod-2.5-rc3,2013-08-31 07:06:00,
2013-08-31 01:11:00,67.8,50.1,30.16,ENE,71,3.0,4.0,53,0.00,,,0.00,vanprod-2.5-rc3,2013-08-31 07:11:00,
2013-08-31 01:16:00,67.6,49.9,30.16,East,89,1.0,0.0,53,0.00,,,0.00,vanprod-2.5-rc3,2013-08-31 07:16:00,
2013-08-31 01:21:00,67.6,49.9,30.16,SE,126,0.0,0.0,53,0.00,,,0.00,vanprod-2.5-rc3,2013-08-31 07:21:00,
2013-08-31 01:26:00,67.7,50.0,30.16,SE,125,0.0,0.0,53,0.00,,,0.00,vanprod-2.5-rc3,2013-08-31 07:26:00,
2013-08-31 01:31:00,67.7,50.0,30.15,ESE,123,0.0,0.0,53,0.00,,,0.00,vanprod-2.5-rc3,2013-08-31 07:31:00,
2013-08-31 01:36:00,67.6,49.9,30.15,NE,48,3.0,5.0,53,0.00,,,0.00,vanprod-2.5-rc3,2013-08-31 07:36:00,
2013-08-31 01:41:00,67.9,49.6,30.15,NE,48,4.0,5.0,52,0.00,,,0.00,vanprod-2.5-rc3,2013-08-31 07:41:00,
2013-08-31 01:46:00,68.2,49.9,30.15,ENE,67,3.0,3.0,52,0.00,,,0.00,vanprod-2.5-rc3,2013-08-31 07:46:00,
2013-08-31 01:51:00,68.3,50.0,30.15,ENE,77,3.0,3.0,52,0.00,,,0.00,vanprod-2.5-rc3,2013-08-31 07:51:00,
2013-08-31 01:56:00,68.4,49.6,30.15,East,96,2.0,3.0,51,0.00,,,0.00,vanprod-2.5-rc3,2013-08-31 07:56:00,
2013-08-31 02:01:00,68.4,49.6,30.14,East,90,3.0,4.0,51,0.00,,,0.00,vanprod-2.5-rc3,2013-08-31 08:01:00,
2013-08-31 02:06:00,68.4,49.6,30.14,East,79,3.0,4.0,51,0.00,,,0.00,vanprod-2.5-rc3,2013-08-31 08:06:00,
2013-08-31 02:11:00,68.3,50.0,30.14,ENE,69,3.0,4.0,52,0.00,,,0.00,vanprod-2.5-rc3,2013-08-31 08:11:00,
2013-08-31 02:16:00,68.3,50.0,30.14,East,92,1.0,3.0,52,0.00,,,0.00,vanprod-2.5-rc3,2013-08-31 08:16:00,
2013-08-31 02:21:00,68.2,49.9,30.14,East,91,0.0,0.0,52,0.00,,,0.00,vanprod-2.5-rc3,2013-08-31 08:21:00,
2013-08-31 02:26:00,68.1,49.8,30.14,East,91,0.0,0.0,52,0.00,,,0.00,vanprod-2.5-rc3,2013-08-31 08:26:00,
2013-08-31 02:31:00,68.0,49.7,30.14,East,91,0.0,0.0,52,0.00,,,0.00,vanprod-2.5-rc3,2013-08-31 08:31:00,
2013-08-31 02:36:00,67.9,50.2,30.14,East,94,0.0,0.0,53,0.00,,,0.00,vanprod-2.5-rc3,2013-08-31 08:36:00,
2013-08-31 02:41:00,67.8,50.1,30.14,ESE,112,0.0,0.0,53,0.00,,,0.00,vanprod-2.5-rc3,2013-08-31 08:41:00,
2013-08-31 02:46:00,67.9,49.6,30.14,ESE,112,0.0,0.0,52,0.00,,,0.00,vanprod-2.5-rc3,2013-08-31 08:46:00,
2013-08-31 02:51:00,68.0,49.7,30.14,ESE,123,0.0,0.0,52,0.00,,,0.00,vanprod-2.5-rc3,2013-08-31 08:51:00,
2013-08-31 02:56:00,68.1,49.8,30.14,ESE,118,0.0,0.0,52,0.00,,,0.00,vanprod-2.5-rc3,2013-08-31 08:56:00,
2013-08-31 03:01:00,68.1,49.3,30.14,ESE,117,0.0,0.0,51,0.00,,,0.00,vanprod-2.5-rc3,2013-08-31 09:01:00,
2013-08-31 03:06:00,67.9,49.6,30.14,ESE,117,0.0,0.0,52,0.00,,,0.00,vanprod-2.5-rc3,2013-08-31 09:06:00,
2013-08-31 03:11:00,67.6,49.4,30.13,SE,128,4.0,4.0,52,0.00,,,0.00,vanprod-2.5-rc3,2013-08-31 09:11:00,
2013-08-31 03:16:00,67.6,49.4,30.13,SE,132,4.0,4.0,52,0.00,,,0.00,vanprod-2.5-rc3,2013-08-31 09:16:00,
2013-08-31 03:21:00,67.7,49.5,30.14,SE,129,3.0,3.0,52,0.00,,,0.00,vanprod-2.5-rc3,2013-08-31 09:21:00,
2013-08-31 03:26:00,67.8,49.6,30.13,SE,139,4.0,6.0,52,0.00,,,0.00,vanprod-2.5-rc3,2013-08-31 09:26:00,
2013-08-31 03:31:00,67.8,49.6,30.13,SE,129,3.0,3.0,52,0.00,,,0.00,vanprod-2.5-rc3,2013-08-31 09:31:00,
2013-08-31 03:36:00,67.7,49.5,30.14,SE,126,0.0,0.0,52,0.00,,,0.00,vanprod-2.5-rc3,2013-08-31 09:36:00,
2013-08-31 03:41:00,67.3,49.6,30.13,NE,42,0.0,0.0,53,0.00,,,0.00,vanprod-2.5-rc3,2013-08-31 09:41:00,
2013-08-31 03:46:00,66.7,49.5,30.13,NE,38,0.0,0.0,54,0.00,,,0.00,vanprod-2.5-rc3,2013-08-31 09:46:00,
2013-08-31 03:51:00,66.4,49.3,30.14,NE,38,0.0,0.0,54,0.00,,,0.00,vanprod-2.5-rc3,2013-08-31 09:51:00,
2013-08-31 03:56:00,66.1,49.0,30.14,NE,38,0.0,0.0,54,0.00,,,0.00,vanprod-2.5-rc3,2013-08-31 09:56:00,
2013-08-31 04:01:00,65.8,49.2,30.14,NE,39,0.0,0.0,55,0.00,,,0.00,vanprod-2.5-rc3,2013-08-31 10:01:00,
2013-08-31 04:06:00,65.4,48.8,30.12,ENE,74,2.0,3.0,55,0.00,,,0.00,vanprod-2.5-rc3,2013-08-31 10:06:00,
2013-08-31 04:11:00,65.3,49.2,30.13,ENE,77,2.0,2.0,56,0.00,,,0.00,vanprod-2.5-rc3,2013-08-31 10:11:00,
2013-08-31 04:16:00,65.2,49.1,30.13,East,84,0.0,0.0,56,0.00,,,0.00,vanprod-2.5-rc3,2013-08-31 10:16:00,
2013-08-31 04:21:00,65.2,49.1,30.13,East,84,0.0,0.0,56,0.00,,,0.00,vanprod-2.5-rc3,2013-08-31 10:21:00,
2013-08-31 04:26:00,65.2,49.6,30.13,East,80,0.0,0.0,57,0.00,,,0.00,vanprod-2.5-rc3,2013-08-31 10:26:00,
2013-08-31 04:31:00,65.1,49.0,30.13,East,80,0.0,0.0,56,0.00,,,0.00,vanprod-2.5-rc3,2013-08-31 10:31:00,
2013-08-31 04:36:00,64.9,49.3,30.12,East,80,0.0,0.0,57,0.00,,,0.00,vanprod-2.5-rc3,2013-08-31 10:36:00,
2013-08-31 04:41:00,64.8,49.2,30.12,East,80,0.0,0.0,57,0.00,,,0.00,vanprod-2.5-rc3,2013-08-31 10:41:00,
2013-08-31 04:46:00,64.7,49.1,30.13,East,80,0.0,0.0,57,0.00,,,0.00,vanprod-2.5-rc3,2013-08-31 10:46:00,
2013-08-31 04:51:00,64.7,49.6,30.12,East,80,0.0,0.0,58,0.00,,,0.00,vanprod-2.5-rc3,2013-08-31 10:51:00,
2013-08-31 04:56:00,64.7,50.1,30.12,ENE,70,0.0,0.0,59,0.00,,,0.00,vanprod-2.5-rc3,2013-08-31 10:56:00,
2013-08-31 05:01:00,64.8,50.2,30.13,ENE,59,0.0,2.0,59,0.00,,,0.00,vanprod-2.5-rc3,2013-08-31 11:01:00,
2013-08-31 05:06:00,64.9,50.2,30.13,ENE,62,3.0,3.0,59,0.00,,,0.00,vanprod-2.5-rc3,2013-08-31 11:06:00,
2013-08-31 05:11:00,65.0,49.9,30.13,ENE,70,2.0,2.0,58,0.00,,,0.00,vanprod-2.5-rc3,2013-08-31 11:11:00,
2013-08-31 05:16:00,64.9,49.8,30.13,ENE,71,3.0,3.0,58,0.00,,,0.00,vanprod-2.5-rc3,2013-08-31 11:16:00,
2013-08-31 05:21:00,65.0,50.3,30.14,ENE,75,3.0,4.0,59,0.00,,,0.00,vanprod-2.5-rc3,2013-08-31 11:21:00,
2013-08-31 05:26:00,65.0,50.3,30.14,ENE,76,3.0,3.0,59,0.00,,,0.00,vanprod-2.5-rc3,2013-08-31 11:26:00,
2013-08-31 05:31:00,65.1,50.4,30.14,ENE,78,4.0,4.0,59,0.00,,,0.00,vanprod-2.5-rc3,2013-08-31 11:31:00,
2013-08-31 05:36:00,65.2,50.5,30.14,ENE,74,3.0,3.0,59,0.00,,,0.00,vanprod-2.5-rc3,2013-08-31 11:36:00,
2013-08-31 05:41:00,65.2,50.5,30.14,ENE,71,2.0,2.0,59,0.00,,,0.00,vanprod-2.5-rc3,2013-08-31 11:41:00,
2013-08-31 05:46:00,65.1,50.4,30.14,ENE,76,2.0,2.0,59,0.00,,,0.00,vanprod-2.5-rc3,2013-08-31 11:46:00,
2013-08-31 05:51:00,65.2,50.5,30.14,ENE,78,2.0,3.0,59,0.00,,,0.00,vanprod-2.5-rc3,2013-08-31 11:51:00,
2013-08-31 05:56:00,65.0,50.3,30.14,ENE,64,3.0,4.0,59,0.00,,,0.00,vanprod-2.5-rc3,2013-08-31 11:56:00,
2013-08-31 06:01:00,65.0,50.3,30.14,ENE,58,4.0,4.0,59,0.00,,,0.00,vanprod-2.5-rc3,2013-08-31 12:01:00,
2013-08-31 06:06:00,65.2,50.5,30.14,ENE,71,3.0,4.0,59,0.00,,,0.00,vanprod-2.5-rc3,2013-08-31 12:06:00,
2013-08-31 06:11:00,65.2,50.5,30.14,ENE,69,2.0,3.0,59,0.00,,,0.00,vanprod-2.5-rc3,2013-08-31 12:11:00,
2013-08-31 06:16:00,65.3,50.6,30.14,East,96,2.0,2.0,59,0.00,,,0.00,vanprod-2.5-rc3,2013-08-31 12:16:00,
2013-08-31 06:21:00,65.4,50.7,30.15,East,94,0.0,0.0,59,0.00,,,0.00,vanprod-2.5-rc3,2013-08-31 12:21:00,
2013-08-31 06:26:00,65.4,50.7,30.15,East,94,0.0,0.0,59,0.00,,,0.00,vanprod-2.5-rc3,2013-08-31 12:26:00,
2013-08-31 06:31:00,65.3,50.6,30.15,East,88,1.0,2.0,59,0.00,,,0.00,vanprod-2.5-rc3,2013-08-31 12:31:00,
2013-08-31 06:36:00,65.2,50.5,30.15,ENE,76,3.0,3.0,59,0.00,,,0.00,vanprod-2.5-rc3,2013-08-31 12:36:00,
2013-08-31 06:41:00,65.2,51.0,30.15,ENE,77,4.0,4.0,60,0.00,,,0.00,vanprod-2.5-rc3,2013-08-31 12:41:00,
2013-08-31 06:46:00,65.2,50.5,30.15,East,81,2.0,2.0,59,0.00,,,0.00,vanprod-2.5-rc3,2013-08-31 12:46:00,
2013-08-31 06:51:00,65.2,50.5,30.16,East,88,2.0,2.0,59,0.00,,,0.00,vanprod-2.5-rc3,2013-08-31 12:51:00,
2013-08-31 06:56:00,65.4,51.2,30.16,ENE,76,3.0,3.0,60,0.00,,,0.00,vanprod-2.5-rc3,2013-08-31 12:56:00,
2013-08-31 07:01:00,65.6,52.2,30.17,East,93,4.0,4.0,62,0.00,,,0.00,vanprod-2.5-rc3,2013-08-31 13:01:00,
2013-08-31 07:06:00,65.6,52.7,30.16,East,94,3.0,4.0,63,0.00,,,0.00,vanprod-2.5-rc3,2013-08-31 13:06:00,
2013-08-31 07:11:00,65.7,51.9,30.17,East,85,4.0,6.0,61,0.00,,,0.00,vanprod-2.5-rc3,2013-08-31 13:11:00,
2013-08-31 07:16:00,65.8,51.5,30.15,ENE,76,4.0,6.0,60,0.00,,,0.00,vanprod-2.5-rc3,2013-08-31 13:16:00,
2013-08-31 07:21:00,65.9,50.7,30.15,ENE,75,3.0,5.0,58,0.00,,,0.00,vanprod-2.5-rc3,2013-08-31 13:21:00,
2013-08-31 07:26:00,66.0,50.8,30.15,ENE,59,3.0,3.0,58,0.00,,,0.00,vanprod-2.5-rc3,2013-08-31 13:26:00,
2013-08-31 07:31:00,66.0,50.3,30.15,NE,50,4.0,4.0,57,0.00,,,0.00,vanprod-2.5-rc3,2013-08-31 13:31:00,
2013-08-31 07:36:00,66.0,50.3,30.15,NE,55,3.0,3.0,57,0.00,,,0.00,vanprod-2.5-rc3,2013-08-31 13:36:00,
2013-08-31 07:41:00,66.0,50.8,30.15,ENE,62,5.0,5.0,58,0.00,,,0.00,vanprod-2.5-rc3,2013-08-31 13:41:00,
2013-08-31 07:46:00,65.9,51.2,30.15,ENE,68,3.0,3.0,59,0.00,,,0.00,vanprod-2.5-rc3,2013-08-31 13:46:00,
2013-08-31 07:51:00,65.9,51.6,30.15,East,85,1.0,0.0,60,0.00,,,0.00,vanprod-2.5-rc3,2013-08-31 13:51:00,
2013-08-31 07:56:00,65.9,51.6,30.15,ENE,58,2.0,2.0,60,0.00,,,0.00,vanprod-2.5-rc3,2013-08-31 13:56:00,
2013-08-31 08:01:00,65.9,52.1,30.16,NE,56,3.0,4.0,61,0.00,,,0.00,vanprod-2.5-rc3,2013-08-31 14:01:00,
2013-08-31 08:06:00,66.0,52.2,30.16,ENE,59,3.0,3.0,61,0.00,,,0.00,vanprod-2.5-rc3,2013-08-31 14:06:00,
2013-08-31 08:11:00,66.1,52.3,30.16,NNE,32,2.0,3.0,61,0.00,,,0.00,vanprod-2.5-rc3,2013-08-31 14:11:00,
2013-08-31 08:16:00,66.1,51.8,30.16,NE,34,4.0,4.0,60,0.00,,,0.00,vanprod-2.5-rc3,2013-08-31 14:16:00,
2013-08-31 08:21:00,66.0,51.3,30.16,ENE,64,6.0,6.0,59,0.00,,,0.00,vanprod-2.5-rc3,2013-08-31 14:21:00,
2013-08-31 08:26:00,66.0,51.3,30.16,ENE,57,7.0,8.0,59,0.00,,,0.00,vanprod-2.5-rc3,2013-08-31 14:26:00,
2013-08-31 08:31:00,66.1,51.4,30.16,ENE,67,5.0,5.0,59,0.00,,,0.00,vanprod-2.5-rc3,2013-08-31 14:31:00,
2013-08-31 08:36:00,66.2,51.5,30.16,ENE,65,5.0,7.0,59,0.00,,,0.00,vanprod-2.5-rc3,2013-08-31 14:36:00,
2013-08-31 08:41:00,66.4,51.2,30.16,ENE,63,4.0,4.0,58,0.00,,,0.00,vanprod-2.5-rc3,2013-08-31 14:41:00,
2013-08-31 08:46:00,66.6,51.4,30.16,ENE,74,4.0,6.0,58,0.00,,,0.00,vanprod-2.5-rc3,2013-08-31 14:46:00,
2013-08-31 08:51:00,66.8,51.6,30.17,ENE,68,0.0,0.0,58,0.00,,,0.00,vanprod-2.5-rc3,2013-08-31 14:51:00,
2013-08-31 08:56:00,67.1,51.4,30.16,ENE,72,4.0,4.0,57,0.00,,,0.00,vanprod-2.5-rc3,2013-08-31 14:56:00,
2013-08-31 09:01:00,67.2,51.5,30.17,ENE,67,3.0,4.0,57,0.00,,,0.00,vanprod-2.5-rc3,2013-08-31 15:01:00,
2013-08-31 09:06:00,67.4,51.7,30.16,ENE,70,4.0,4.0,57,0.00,,,0.00,vanprod-2.5-rc3,2013-08-31 15:06:00,
2013-08-31 09:11:00,67.6,51.8,30.16,ENE,75,0.0,0.0,57,0.00,,,0.00,vanprod-2.5-rc3,2013-08-31 15:11:00,
2013-08-31 09:16:00,68.0,51.7,30.16,ENE,77,0.0,0.0,56,0.00,,,0.00,vanprod-2.5-rc3,2013-08-31 15:16:00,
2013-08-31 09:21:00,68.4,52.1,30.16,ENE,76,2.0,3.0,56,0.00,,,0.00,vanprod-2.5-rc3,2013-08-31 15:21:00,
2013-08-31 09:26:00,68.9,52.1,30.17,East,82,3.0,3.0,55,0.00,,,0.00,vanprod-2.5-rc3,2013-08-31 15:26:00,
2013-08-31 09:31:00,69.4,52.1,30.17,East,81,2.0,3.0,54,0.00,,,0.00,vanprod-2.5-rc3,2013-08-31 15:31:00,
2013-08-31 09:36:00,69.9,52.0,30.17,ENE,78,4.0,4.0,53,0.00,,,0.00,vanprod-2.5-rc3,2013-08-31 15:36:00,
2013-08-31 09:41:00,70.3,51.9,30.17,ENE,72,3.0,3.0,52,0.00,,,0.00,vanprod-2.5-rc3,2013-08-31 15:41:00,
2013-08-31 09:46:00,70.6,52.1,30.16,ENE,74,3.0,3.0,52,0.00,,,0.00,vanprod-2.5-rc3,2013-08-31 15:46:00,
2013-08-31 09:51:00,70.9,51.9,30.16,ENE,67,0.0,0.0,51,0.00,,,0.00,vanprod-2.5-rc3,2013-08-31 15:51:00,
2013-08-31 09:56:00,71.2,52.2,30.16,ENE,76,2.0,2.0,51,0.00,,,0.00,vanprod-2.5-rc3,2013-08-31 15:56:00,
2013-08-31 10:01:00,71.5,51.9,30.17,ENE,68,2.0,0.0,50,0.00,,,0.00,vanprod-2.5-rc3,2013-08-31 16:01:00,
2013-08-31 10:06:00,71.9,52.3,30.17,ENE,57,0.0,0.0,50,0.00,,,0.00,vanprod-2.5-rc3,2013-08-31 16:06:00,
2013-08-31 10:11:00,72.3,52.1,30.17,ENE,58,2.0,3.0,49,0.00,,,0.00,vanprod-2.5-rc3,2013-08-31 16:11:00,
2013-08-31 10:16:00,73.0,53.3,30.16,NE,35,6.0,9.0,50,0.00,,,0.00,vanprod-2.5-rc3,2013-08-31 16:16:00,
2013-08-31 10:21:00,73.2,52.4,30.16,NE,56,6.0,8.0,48,0.00,,,0.00,vanprod-2.5-rc3,2013-08-31 16:21:00,
2013-08-31 10:26:00,73.3,51.9,30.16,NE,45,7.0,7.0,47,0.00,,,0.00,vanprod-2.5-rc3,2013-08-31 16:26:00,
2013-08-31 10:31:00,73.9,52.4,30.16,ENE,75,3.0,4.0,47,0.00,,,0.00,vanprod-2.5-rc3,2013-08-31 16:31:00,
2013-08-31 10:36:00,74.7,52.6,30.15,ENE,69,5.0,5.0,46,0.00,,,0.00,vanprod-2.5-rc3,2013-08-31 16:36:00,
2013-08-31 10:41:00,75.4,52.6,30.15,ENE,58,5.0,7.0,45,0.00,,,0.00,vanprod-2.5-rc3,2013-08-31 16:41:00,
2013-08-31 10:46:00,75.8,52.4,30.15,ENE,65,6.0,6.0,44,0.00,,,0.00,vanprod-2.5-rc3,2013-08-31 16:46:00,
2013-08-31 10:51:00,76.6,53.1,30.16,ENE,68,2.0,0.0,44,0.00,,,0.00,vanprod-2.5-rc3,2013-08-31 16:51:00,
2013-08-31 10:56:00,77.7,53.4,30.16,NE,44,6.0,6.0,43,0.00,,,0.00,vanprod-2.5-rc3,2013-08-31 16:56:00,
2013-08-31 11:01:00,77.5,52.6,30.16,ENE,63,8.0,9.0,42,0.00,,,0.00,vanprod-2.5-rc3,2013-08-31 17:01:00,
2013-08-31 11:06:00,77.6,53.4,30.16,ENE,68,7.0,8.0,43,0.00,,,0.00,vanprod-2.5-rc3,2013-08-31 17:06:00,
2013-08-31 11:11:00,77.5,52.6,30.16,NE,56,10.0,10.0,42,0.00,,,0.00,vanprod-2.5-rc3,2013-08-31 17:11:00,
2013-08-31 11:16:00,76.7,52.5,30.17,NE,51,9.0,9.0,43,0.00,,,0.00,vanprod-2.5-rc3,2013-08-31 17:16:00,
2013-08-31 11:21:00,76.4,52.9,30.17,NE,55,8.0,8.0,44,0.00,,,0.00,vanprod-2.5-rc3,2013-08-31 17:21:00,
2013-08-31 11:26:00,76.4,52.9,30.17,NE,52,7.0,9.0,44,0.00,,,0.00,vanprod-2.5-rc3,2013-08-31 17:26:00,
2013-08-31 11:31:00,76.6,53.1,30.16,NE,40,5.0,6.0,44,0.00,,,0.00,vanprod-2.5-rc3,2013-08-31 17:31:00,
2013-08-31 11:36:00,76.8,52.6,30.16,ENE,61,6.0,6.0,43,0.00,,,0.00,vanprod-2.5-rc3,2013-08-31 17:36:00,
2013-08-31 11:41:00,77.1,52.3,30.14,ENE,60,7.0,9.0,42,0.00,,,0.00,vanprod-2.5-rc3,2013-08-31 17:41:00,
2013-08-31 11:46:00,77.5,53.3,30.14,ENE,69,6.0,0.0,43,0.00,,,0.00,vanprod-2.5-rc3,2013-08-31 17:46:00,
2013-08-31 11:51:00,77.8,52.9,30.14,ENE,61,9.0,10.0,42,0.00,,,0.00,vanprod-2.5-rc3,2013-08-31 17:51:00,
2013-08-31 11:56:00,78.1,53.2,30.14,NE,53,7.0,7.0,42,0.00,,,0.00,vanprod-2.5-rc3,2013-08-31 17:56:00,
2013-08-31 12:01:00,78.7,53.7,30.14,ENE,60,5.0,11.0,42,0.00,,,0.00,vanprod-2.5-rc3,2013-08-31 18:01:00,
2013-08-31 12:06:00,79.2,53.5,30.14,ENE,76,4.0,4.0,41,0.00,,,0.00,vanprod-2.5-rc3,2013-08-31 18:06:00,
2013-08-31 12:11:00,79.9,53.4,30.13,ENE,68,4.0,9.0,40,0.00,,,0.00,vanprod-2.5-rc3,2013-08-31 18:11:00,
2013-08-31 12:16:00,80.4,52.5,30.13,ENE,62,4.0,10.0,38,0.00,,,0.00,vanprod-2.5-rc3,2013-08-31 18:16:00,
2013-08-31 12:21:00,80.7,52.8,30.12,ENE,76,1.0,4.0,38,0.00,,,0.00,vanprod-2.5-rc3,2013-08-31 18:21:00,
2013-08-31 12:26:00,80.9,51.5,30.12,ENE,67,3.0,0.0,36,0.00,,,0.00,vanprod-2.5-rc3,2013-08-31 18:26:00,
2013-08-31 12:31:00,80.9,52.2,30.12,ENE,68,6.0,7.0,37,0.00,,,0.00,vanprod-2.5-rc3,2013-08-31 18:31:00,
2013-08-31 12:36:00,81.0,51.6,30.12,ENE,73,6.0,6.0,36,0.00,,,0.00,vanprod-2.5-rc3,2013-08-31 18:36:00,
2013-08-31 12:41:00,81.1,52.4,30.11,ENE,72,0.0,0.0,37,0.00,,,0.00,vanprod-2.5-rc3,2013-08-31 18:41:00,
2013-08-31 12:46:00,80.9,52.2,30.11,ENE,65,5.0,5.0,37,0.00,,,0.00,vanprod-2.5-rc3,2013-08-31 18:46:00,
2013-08-31 12:51:00,81.2,52.5,30.11,East,82,4.0,4.0,37,0.00,,,0.00,vanprod-2.5-rc3,2013-08-31 18:51:00,
2013-08-31 12:56:00,81.5,52.7,30.11,ENE,64,5.0,0.0,37,0.00,,,0.00,vanprod-2.5-rc3,2013-08-31 18:56:00,
2013-08-31 13:01:00,82.4,53.5,30.10,ENE,70,5.0,5.0,37,0.00,,,0.00,vanprod-2.5-rc3,2013-08-31 19:01:00,
2013-08-31 13:06:00,83.0,52.6,30.10,ENE,69,3.0,3.0,35,0.00,,,0.00,vanprod-2.5-rc3,2013-08-31 19:06:00,
2013-08-31 13:11:00,83.3,53.6,30.10,ENE,74,3.0,0.0,36,0.00,,,0.00,vanprod-2.5-rc3,2013-08-31 19:11:00,
2013-08-31 13:16:00,83.8,54.0,30.11,ENE,74,3.0,5.0,36,0.00,,,0.00,vanprod-2.5-rc3,2013-08-31 19:16:00,
2013-08-31 13:21:00,84.7,53.3,30.11,NE,51,1.0,4.0,34,0.00,,,0.00,vanprod-2.5-rc3,2013-08-31 19:21:00,
2013-08-31 13:26:00,85.5,54.0,30.09,ENE,70,1.0,3.0,34,0.00,,,0.00,vanprod-2.5-rc3,2013-08-31 19:26:00,
2013-08-31 13:31:00,86.0,51.9,30.09,NE,54,2.0,2.0,31,0.00,,,0.00,vanprod-2.5-rc3,2013-08-31 19:31:00,
2013-08-31 13:36:00,86.2,52.9,30.09,ENE,64,0.0,0.0,32,0.00,,,0.00,vanprod-2.5-rc3,2013-08-31 19:36:00,
2013-08-31 13:41:00,86.3,53.0,30.09,ESE,115,0.0,0.0,32,0.00,,,0.00,vanprod-2.5-rc3,2013-08-31 19:41:00,
2013-08-31 13:46:00,86.2,52.0,30.09,South,180,9.0,11.0,31,0.00,,,0.00,vanprod-2.5-rc3,2013-08-31 19:46:00,
2013-08-31 13:51:00,85.5,51.4,30.09,South,173,9.0,14.0,31,0.00,,,0.00,vanprod-2.5-rc3,2013-08-31 19:51:00,
2013-08-31 13:56:00,85.4,51.4,30.10,SSE,163,6.0,11.0,31,0.00,,,0.00,vanprod-2.5-rc3,2013-08-31 19:56:00,
2013-08-31 14:01:00,86.2,51.2,30.09,South,169,7.0,7.0,30,0.00,,,0.00,vanprod-2.5-rc3,2013-08-31 20:01:00,
2013-08-31 14:06:00,87.7,51.5,30.10,South,172,7.0,7.0,29,0.00,,,0.00,vanprod-2.5-rc3,2013-08-31 20:06:00,
2013-08-31 14:11:00,88.8,51.5,30.10,SSE,153,8.0,8.0,28,0.00,,,0.00,vanprod-2.5-rc3,2013-08-31 20:11:00,
2013-08-31 14:16:00,89.5,52.1,30.08,South,176,5.0,6.0,28,0.00,,,0.00,vanprod-2.5-rc3,2013-08-31 20:16:00,
2013-08-31 14:21:00,90.1,51.6,30.08,SSE,166,7.0,7.0,27,0.00,,,0.00,vanprod-2.5-rc3,2013-08-31 20:21:00,
2013-08-31 14:26:00,90.1,51.6,30.07,South,169,7.0,10.0,27,0.00,,,0.00,vanprod-2.5-rc3,2013-08-31 20:26:00,
2013-08-31 14:31:00,89.8,51.4,30.07,South,176,4.0,6.0,27,0.00,,,0.00,vanprod-2.5-rc3,2013-08-31 20:31:00,
2013-08-31 14:36:00,90.6,53.1,30.07,SSE,168,6.0,6.0,28,0.00,,,0.00,vanprod-2.5-rc3,2013-08-31 20:36:00,
2013-08-31 14:41:00,91.1,52.5,30.06,South,169,5.0,5.0,27,0.00,,,0.00,vanprod-2.5-rc3,2013-08-31 20:41:00,
2013-08-31 14:46:00,91.9,53.2,30.07,South,181,5.0,6.0,27,0.00,,,0.00,vanprod-2.5-rc3,2013-08-31 20:46:00,
2013-08-31 14:51:00,92.9,50.8,30.05,South,188,3.0,3.0,24,0.00,,,0.00,vanprod-2.5-rc3,2013-08-31 20:51:00,
2013-08-31 14:56:00,93.1,51.0,30.05,SSW,209,4.0,4.0,24,0.00,,,0.00,vanprod-2.5-rc3,2013-08-31 20:56:00,
2013-08-31 15:01:00,93.1,51.0,30.05,South,180,6.0,6.0,24,0.00,,,0.00,vanprod-2.5-rc3,2013-08-31 21:01:00,
2013-08-31 15:06:00,93.8,50.4,30.06,SSE,161,0.0,0.0,23,0.00,,,0.00,vanprod-2.5-rc3,2013-08-31 21:06:00,
2013-08-31 15:11:00,94.0,50.6,30.05,ESE,113,3.0,3.0,23,0.00,,,0.00,vanprod-2.5-rc3,2013-08-31 21:11:00,
2013-08-31 15:16:00,94.4,49.7,30.05,NNE,33,1.0,2.0,22,0.00,,,0.00,vanprod-2.5-rc3,2013-08-31 21:16:00,
2013-08-31 15:21:00,93.4,48.9,30.03,NNE,21,5.0,5.0,22,0.00,,,0.00,vanprod-2.5-rc3,2013-08-31 21:21:00,
2013-08-31 15:26:00,92.9,50.8,30.03,ENE,77,3.0,4.0,24,0.00,,,0.00,vanprod-2.5-rc3,2013-08-31 21:26:00,
2013-08-31 15:31:00,92.8,49.6,30.03,North,5,1.0,0.0,23,0.00,,,0.00,vanprod-2.5-rc3,2013-08-31 21:31:00,
2013-08-31 15:36:00,92.2,49.1,30.03,NE,47,4.0,4.0,23,0.00,,,0.00,vanprod-2.5-rc3,2013-08-31 21:36:00,
2013-08-31 15:41:00,92.4,49.3,30.03,NE,40,0.0,0.0,23,0.00,,,0.00,vanprod-2.5-rc3,2013-08-31 21:41:00,
2013-08-31 15:46:00,93.4,50.1,30.03,ENE,64,5.0,11.0,23,0.00,,,0.00,vanprod-2.5-rc3,2013-08-31 21:46:00,
2013-08-31 15:51:00,94.4,49.7,30.04,North,3,5.0,5.0,22,0.00,,,0.00,vanprod-2.5-rc3,2013-08-31 21:51:00,
2013-08-31 15:56:00,93.2,49.9,30.02,NNE,16,6.0,6.0,23,0.00,,,0.00,vanprod-2.5-rc3,2013-08-31 21:56:00,
2013-08-31 16:01:00,93.1,49.8,30.03,NNE,32,7.0,9.0,23,0.00,,,0.00,vanprod-2.5-rc3,2013-08-31 22:01:00,
2013-08-31 16:06:00,93.4,50.1,30.03,NNW,327,5.0,6.0,23,0.00,,,0.00,vanprod-2.5-rc3,2013-08-31 22:06:00,
2013-08-31 16:11:00,93.1,51.0,30.03,NNE,31,4.0,5.0,24,0.00,,,0.00,vanprod-2.5-rc3,2013-08-31 22:11:00,
2013-08-31 16:16:00,92.2,50.2,30.02,NE,48,0.0,0.0,24,0.00,,,0.00,vanprod-2.5-rc3,2013-08-31 22:16:00,
2013-08-31 16:21:00,91.8,51.0,30.02,NE,52,3.0,4.0,25,0.00,,,0.00,vanprod-2.5-rc3,2013-08-31 22:21:00,
2013-08-31 16:26:00,92.6,52.7,30.02,ENE,64,0.0,0.0,26,0.00,,,0.00,vanprod-2.5-rc3,2013-08-31 22:26:00,
2013-08-31 16:31:00,93.7,50.3,30.01,North,1,7.0,8.0,23,0.00,,,0.00,vanprod-2.5-rc3,2013-08-31 22:31:00,
2013-08-31 16:36:00,92.5,50.5,30.02,NE,42,0.0,0.0,24,0.00,,,0.00,vanprod-2.5-rc3,2013-08-31 22:36:00,
2013-08-31 16:41:00,92.6,49.4,30.02,NNE,21,4.0,4.0,23,0.00,,,0.00,vanprod-2.5-rc3,2013-08-31 22:41:00,
2013-08-31 16:46:00,92.6,50.6,30.02,ENE,68,0.0,0.0,24,0.00,,,0.00,vanprod-2.5-rc3,2013-08-31 22:46:00,
2013-08-31 16:51:00,91.6,49.7,30.02,North,3,0.0,0.0,24,0.00,,,0.00,vanprod-2.5-rc3,2013-08-31 22:51:00,
2013-08-31 16:56:00,90.5,48.8,30.00,NE,48,0.0,0.0,24,0.00,,,0.00,vanprod-2.5-rc3,2013-08-31 22:56:00,
2013-08-31 17:01:00,89.9,49.4,30.01,ENE,62,0.0,0.0,25,0.00,,,0.00,vanprod-2.5-rc3,2013-08-31 23:01:00,
2013-08-31 17:06:00,89.5,49.1,30.01,ENE,63,0.0,0.0,25,0.00,,,0.00,vanprod-2.5-rc3,2013-08-31 23:06:00,
2013-08-31 17:11:00,89.2,50.9,30.01,ENE,63,0.0,0.0,27,0.00,,,0.00,vanprod-2.5-rc3,2013-08-31 23:11:00,
2013-08-31 17:16:00,89.2,49.9,30.01,ENE,63,0.0,0.0,26,0.00,,,0.00,vanprod-2.5-rc3,2013-08-31 23:16:00,
2013-08-31 17:21:00,89.2,49.9,30.01,ENE,63,0.0,0.0,26,0.00,,,0.00,vanprod-2.5-rc3,2013-08-31 23:21:00,
2013-08-31 17:26:00,89.1,49.8,30.01,ENE,63,0.0,0.0,26,0.00,,,0.00,vanprod-2.5-rc3,2013-08-31 23:26:00,
2013-08-31 17:31:00,88.8,48.5,30.01,ENE,63,0.0,0.0,25,0.00,,,0.00,vanprod-2.5-rc3,2013-08-31 23:31:00,
2013-08-31 17:36:00,88.1,47.9,30.02,ENE,63,0.0,0.0,25,0.00,,,0.00,vanprod-2.5-rc3,2013-08-31 23:36:00,
2013-08-31 17:41:00,87.8,50.7,30.02,ENE,63,0.0,0.0,28,0.00,,,0.00,vanprod-2.5-rc3,2013-08-31 23:41:00,
2013-08-31 17:46:00,87.5,48.4,30.02,ENE,63,0.0,0.0,26,0.00,,,0.00,vanprod-2.5-rc3,2013-08-31 23:46:00,
2013-08-31 17:51:00,87.3,48.3,30.02,ESE,123,0.0,0.0,26,0.00,,,0.00,vanprod-2.5-rc3,2013-08-31 23:51:00,
2013-08-31 17:56:00,87.1,48.1,30.02,SE,129,0.0,0.0,26,0.00,,,0.00,vanprod-2.5-rc3,2013-08-31 23:56:00,
2013-08-31 18:01:00,86.8,47.8,30.02,SE,129,0.0,0.0,26,0.00,,,0.00,vanprod-2.5-rc3,2013-09-01 00:01:00,
2013-08-31 18:06:00,86.6,47.7,30.02,SE,144,0.0,0.0,26,0.00,,,0.00,vanprod-2.5-rc3,2013-09-01 00:06:00,
2013-08-31 18:11:00,86.4,49.5,30.00,SSE,155,0.0,0.0,28,0.00,,,0.00,vanprod-2.5-rc3,2013-09-01 00:11:00,
2013-08-31 18:16:00,86.4,50.4,30.00,South,185,0.0,0.0,29,0.00,,,0.00,vanprod-2.5-rc3,2013-09-01 00:16:00,
2013-08-31 18:21:00,86.3,50.3,30.00,South,179,0.0,0.0,29,0.00,,,0.00,vanprod-2.5-rc3,2013-09-01 00:21:00,
2013-08-31 18:26:00,86.2,50.2,30.00,SSE,165,0.0,0.0,29,0.00,,,0.00,vanprod-2.5-rc3,2013-09-01 00:26:00,
2013-08-31 18:31:00,86.1,50.2,30.00,SSE,164,0.0,0.0,29,0.00,,,0.00,vanprod-2.5-rc3,2013-09-01 00:31:00,
2013-08-31 18:36:00,86.0,50.1,30.01,SSE,164,0.0,0.0,29,0.00,,,0.00,vanprod-2.5-rc3,2013-09-01 00:36:00,
2013-08-31 18:41:00,85.8,50.8,30.01,ESE,122,0.0,0.0,30,0.00,,,0.00,vanprod-2.5-rc3,2013-09-01 00:41:00,
2013-08-31 18:46:00,85.3,50.4,30.02,NE,46,3.0,3.0,30,0.00,,,0.00,vanprod-2.5-rc3,2013-09-01 00:46:00,
2013-08-31 18:51:00,83.8,50.0,30.03,NNE,24,9.0,9.0,31,0.00,,,0.00,vanprod-2.5-rc3,2013-09-01 00:51:00,
2013-08-31 18:56:00,82.3,50.4,30.02,NNE,27,6.0,11.0,33,0.00,,,0.00,vanprod-2.5-rc3,2013-09-01 00:56:00,
2013-08-31 19:01:00,81.3,51.1,30.02,NE,50,3.0,5.0,35,0.00,,,0.00,vanprod-2.5-rc3,2013-09-01 01:01:00,
2013-08-31 19:06:00,80.4,51.0,30.02,ENE,67,5.0,5.0,36,0.00,,,0.00,vanprod-2.5-rc3,2013-09-01 01:06:00,
2013-08-31 19:11:00,79.8,51.2,30.02,ENE,62,6.0,6.0,37,0.00,,,0.00,vanprod-2.5-rc3,2013-09-01 01:11:00,
2013-08-31 19:16:00,79.4,51.6,30.03,East,91,4.0,4.0,38,0.00,,,0.00,vanprod-2.5-rc3,2013-09-01 01:16:00,
2013-08-31 19:21:00,79.0,51.3,30.04,East,101,6.0,9.0,38,0.00,,,0.00,vanprod-2.5-rc3,2013-09-01 01:21:00,
2013-08-31 19:26:00,78.7,51.0,30.04,ESE,107,7.0,7.0,38,0.00,,,0.00,vanprod-2.5-rc3,2013-09-01 01:26:00,
2013-08-31 19:31:00,78.7,51.0,30.04,ESE,110,8.0,8.0,38,0.00,,,0.00,vanprod-2.5-rc3,2013-09-01 01:31:00,
2013-08-31 19:36:00,78.7,51.0,30.05,East,88,12.0,12.0,38,0.00,,,0.00,vanprod-2.5-rc3,2013-09-01 01:36:00,
2013-08-31 19:41:00,78.7,50.3,30.05,ENE,64,12.0,12.0,37,0.00,,,0.00,vanprod-2.5-rc3,2013-09-01 01:41:00,
2013-08-31 19:46:00,78.7,51.0,30.06,NE,55,13.0,13.0,38,0.00,,,0.00,vanprod-2.5-rc3,2013-09-01 01:46:00,
2013-08-31 19:51:00,78.6,50.9,30.06,NE,50,15.0,15.0,38,0.00,,,0.00,vanprod-2.5-rc3,2013-09-01 01:51:00,
2013-08-31 19:56:00,78.0,50.4,30.07,ENE,61,17.0,22.0,38,0.00,,,0.00,vanprod-2.5-rc3,2013-09-01 01:56:00,
2013-08-31 20:01:00,77.1,50.9,30.06,NE,49,12.0,12.0,40,0.00,,,0.00,vanprod-2.5-rc3,2013-09-01 02:01:00,
2013-08-31 20:06:00,76.6,51.2,30.07,NE,48,14.0,14.0,41,0.00,,,0.00,vanprod-2.5-rc3,2013-09-01 02:06:00,
2013-08-31 20:11:00,76.3,51.5,30.08,NE,51,12.0,16.0,42,0.00,,,0.00,vanprod-2.5-rc3,2013-09-01 02:11:00,
2013-08-31 20:16:00,76.0,54.3,30.10,ENE,70,10.0,14.0,47,0.00,,,0.00,vanprod-2.5-rc3,2013-09-01 02:16:00,
2013-08-31 20:21:00,74.8,57.6,30.11,East,89,8.0,10.0,55,0.00,,,0.00,vanprod-2.5-rc3,2013-09-01 02:21:00,
2013-08-31 20:26:00,73.0,57.4,30.10,ESE,103,7.0,7.0,58,0.01,,,0.01,vanprod-2.5-rc3,2013-09-01 02:26:00,
2013-08-31 20:31:00,71.4,57.3,30.11,East,101,4.0,6.0,61,0.01,,,0.01,vanprod-2.5-rc3,2013-09-01 02:31:00,
2013-08-31 20:36:00,70.5,56.0,30.10,East,80,9.0,9.0,60,0.01,,,0.01,vanprod-2.5-rc3,2013-09-01 02:36:00,
2013-08-31 20:41:00,70.3,56.7,30.12,East,86,0.0,0.0,62,0.01,,,0.01,vanprod-2.5-rc3,2013-09-01 02:41:00,
2013-08-31 20:46:00,70.2,56.6,30.11,East,96,0.0,0.0,62,0.01,,,0.01,vanprod-2.5-rc3,2013-09-01 02:46:00,
2013-08-31 20:51:00,70.1,56.9,30.13,East,88,0.0,0.0,63,0.01,,,0.01,vanprod-2.5-rc3,2013-09-01 02:51:00,
2013-08-31 20:56:00,69.9,58.5,30.13,East,87,0.0,0.0,67,0.01,,,0.01,vanprod-2.5-rc3,2013-09-01 02:56:00,
2013-08-31 21:01:00,69.5,58.5,30.14,East,99,0.0,0.0,68,0.02,,,0.02,vanprod-2.5-rc3,2013-09-01 03:01:00,
2013-08-31 21:06:00,68.8,57.8,30.14,ENE,78,0.0,0.0,68,0.02,,,0.02,vanprod-2.5-rc3,2013-09-01 03:06:00,
2013-08-31 21:11:00,68.0,56.2,30.14,ENE,57,4.0,4.0,66,0.02,,,0.02,vanprod-2.5-rc3,2013-09-01 03:11:00,
2013-08-31 21:16:00,67.5,57.4,30.14,East,87,0.0,0.0,70,0.02,,,0.02,vanprod-2.5-rc3,2013-09-01 03:16:00,
2013-08-31 21:21:00,67.4,57.7,30.14,East,89,0.0,0.0,71,0.02,,,0.02,vanprod-2.5-rc3,2013-09-01 03:21:00,
2013-08-31 21:26:00,67.4,57.7,30.14,East,79,0.0,0.0,71,0.01,,,0.02,vanprod-2.5-rc3,2013-09-01 03:26:00,
2013-08-31 21:31:00,67.4,58.1,30.14,ESE,114,0.0,0.0,72,0.01,,,0.02,vanprod-2.5-rc3,2013-09-01 03:31:00,
2013-08-31 21:36:00,67.4,58.5,30.14,ESE,112,0.0,0.0,73,0.01,,,0.02,vanprod-2.5-rc3,2013-09-01 03:36:00,
2013-08-31 21:41:00,67.2,58.3,30.14,ESE,115,0.0,0.0,73,0.01,,,0.02,vanprod-2.5-rc3,2013-09-01 03:41:00,
2013-08-31 21:46:00,67.0,57.7,30.14,East,92,0.0,0.0,72,0.01,,,0.02,vanprod-2.5-rc3,2013-09-01 03:46:00,
2013-08-31 21:51:00,66.8,57.1,30.14,East,98,0.0,0.0,71,0.01,,,0.02,vanprod-2.5-rc3,2013-09-01 03:51:00,
2013-08-31 21:56:00,66.8,57.1,30.14,ENE,78,0.0,0.0,71,0.01,,,0.02,vanprod-2.5-rc3,2013-09-01 03:56:00,
2013-08-31 22:01:00,66.6,56.9,30.14,ENE,67,0.0,0.0,71,0.00,,,0.02,vanprod-2.5-rc3,2013-09-01 04:01:00,
2013-08-31 22:02:00,66.6,56.9,30.14,ENE,77,0.0,0.0,71,0.00,,,0.02,vanprod-2.5-rc3,2013-09-01 04:02:00,
2013-08-31 22:07:00,66.6,55.7,30.14,ESE,116,0.0,0.0,68,0.00,,,0.02,vanprod-2.5-rc3,2013-09-01 04:07:00,
2013-08-31 22:12:00,66.9,56.0,30.14,ESE,115,0.0,0.0,68,0.00,,,0.02,vanprod-2.5-rc3,2013-09-01 04:12:00,
2013-08-31 22:17:00,66.9,57.2,30.14,East,82,0.0,0.0,71,0.00,,,0.02,vanprod-2.5-rc3,2013-09-01 04:17:00,
2013-08-31 22:22:00,66.5,56.8,30.13,ENE,59,0.0,0.0,71,0.00,,,0.02,vanprod-2.5-rc3,2013-09-01 04:22:00,
2013-08-31 22:27:00,66.1,56.0,30.14,NE,38,2.0,4.0,70,0.00,,,0.02,vanprod-2.5-rc3,2013-09-01 04:27:00,
2013-08-31 22:32:00,66.0,55.9,30.14,NE,39,1.0,0.0,70,0.00,,,0.02,vanprod-2.5-rc3,2013-09-01 04:32:00,
2013-08-31 22:37:00,66.0,56.3,30.14,NE,42,3.0,6.0,71,0.00,,,0.02,vanprod-2.5-rc3,2013-09-01 04:37:00,
2013-08-31 22:42:00,65.9,56.2,30.14,NNE,33,6.0,6.0,71,0.00,,,0.02,vanprod-2.5-rc3,2013-09-01 04:42:00,
2013-08-31 22:47:00,65.9,55.5,30.14,NE,43,4.0,4.0,69,0.00,,,0.02,vanprod-2.5-rc3,2013-09-01 04:47:00,
2013-08-31 22:52:00,66.1,55.6,30.14,NE,50,0.0,0.0,69,0.00,,,0.02,vanprod-2.5-rc3,2013-09-01 04:52:00,
2013-08-31 22:57:00,66.1,55.2,30.14,ENE,63,0.0,0.0,68,0.00,,,0.02,vanprod-2.5-rc3,2013-09-01 04:57:00,
2013-08-31 23:02:00,65.9,55.9,30.13,ENE,70,0.0,0.0,70,0.00,,,0.02,vanprod-2.5-rc3,2013-09-01 05:02:00,
2013-08-31 23:07:00,65.7,56.1,30.13,ENE,72,0.0,0.0,71,0.00,,,0.02,vanprod-2.5-rc3,2013-09-01 05:07:00,
2013-08-31 23:12:00,65.6,56.0,30.13,ENE,77,0.0,0.0,71,0.00,,,0.02,vanprod-2.5-rc3,2013-09-01 05:12:00,
2013-08-31 23:17:00,65.5,56.2,30.12,East,81,0.0,0.0,72,0.00,,,0.02,vanprod-2.5-rc3,2013-09-01 05:17:00,
2013-08-31 23:22:00,65.4,56.1,30.13,East,81,0.0,0.0,72,0.00,,,0.02,vanprod-2.5-rc3,2013-09-01 05:22:00,
2013-08-31 23:27:00,65.3,56.1,30.13,East,98,0.0,0.0,72,0.00,,,0.02,vanprod-2.5-rc3,2013-09-01 05:27:00,
2013-08-31 23:32:00,65.4,55.4,30.13,East,86,0.0,0.0,70,0.00,,,0.02,vanprod-2.5-rc3,2013-09-01 05:32:00,
2013-08-31 23:37:00,65.3,55.7,30.12,East,80,0.0,0.0,71,0.00,,,0.02,vanprod-2.5-rc3,2013-09-01 05:37:00,
2013-08-31 23:42:00,65.3,55.3,30.12,East,80,0.0,0.0,70,0.00,,,0.02,vanprod-2.5-rc3,2013-09-01 05:42:00,
2013-08-31 23:47:00,65.4,55.0,30.12,East,100,3.0,5.0,69,0.00,,,0.02,vanprod-2.5-rc3,2013-09-01 05:47:00,
2013-08-31 23:52:00,65.6,54.8,30.10,East,88,0.0,0.0,68,0.00,,,0.02,vanprod-2.5-rc3,2013-09-01 05:52:00,
2013-08-31 23:57:00,65.7,54.9,30.10,East,86,3.0,5.0,68,0.00,,,0.02,vanprod-2.5-rc3,2013-09-01 05:57:00,